Simultaneous Nadir Overpasses (SNOs) Predictions

Prediction of SNOs between AQUA and METOP-B Satellite Orbit:

Table of predicted SNOs for the next 14.0 days since TLE Epoch: 4/6/2017
Index Date (AQUA) Time (AQUA) Lat,Lon (AQUA) SZA (AQUA ) Date (METOP-B) Time (METOP-B) Lat,Lon (METOP-B) SZA (METOP-B ) Distance(km) Time Diff (sec)
1 04/09/2017 12:00:59 73.71, -5.70 65.96 04/09/2017 11:59:55 73.73, -5.72 65.99 2.62 64
2 04/09/2017 12:50:27 -73.81, 161.72 113.95 04/09/2017 12:50:36 -73.78, 161.72 113.98 3.12 9
3 04/09/2017 13:39:59 74.08, -31.24 66.32 04/09/2017 13:41:10 74.06, -30.28 66.27 29.35 71
4 04/12/2017 07:35:09 73.73, 60.71 64.94 04/12/2017 07:34:16 73.73, 60.66 64.94 1.55 53
5 04/12/2017 08:24:37 -73.83,-131.87 114.97 04/12/2017 08:24:56 -73.83,-131.76 114.98 3.28 19
6 04/12/2017 09:14:17 74.51, 34.20 65.75 04/12/2017 09:15:22 74.49, 37.23 65.64 90.06 65
7 04/15/2017 03:09:20 73.76, 127.10 63.95 04/15/2017 03:08:37 73.76, 127.16 63.96 1.94 43
8 04/15/2017 03:58:47 -73.81, -65.36 116.02 04/15/2017 03:59:18 -73.82, -65.37 116.00 2.18 31
9 04/17/2017 22:43:30 73.74,-166.41 62.93 04/17/2017 22:42:59 73.75,-166.46 62.95 1.83 31
10 04/17/2017 23:32:58 -73.84, 1.01 116.98 04/17/2017 23:33:40 -73.82, 1.01 117.01 2.84 42
11 04/20/2017 17:28:01 -73.15, 93.64 118.66 04/20/2017 17:26:54 -73.08, 91.09 118.64 82.87 67
12 04/20/2017 18:17:40 73.79,-100.06 62.01 04/20/2017 18:17:19 73.79, -99.98 62.00 2.53 21
13 04/20/2017 19:07:07 -73.84, 67.48 117.96 04/20/2017 19:08:00 -73.85, 67.51 117.95 2.29 53




NCC Satellite Simultaneous Nadir Overpasses (SNOs) Prediction Service
